Terminal Aerodrome Forecast
Issued by NWS Sioux Falls, SD

Home | Current Version | Previous Version | Text Only | Print | Product List | Glossary On
Versions: 1 2 3 4 5 6 7 8 9 10 11 12 13 14 15 16 17 18 19 20 21 22 23 24
000
FTUS43 KFSD 151720
TAFSUX
TAF
KSUX 151720Z 1518/1618 14014G20KT P6SM VCSH SCT040 BKN100
     FM152000 14018G25KT P6SM BKN040
     FM160200 12012KT P6SM OVC035
     FM160900 11004KT P6SM OVC025
     FM161500 12012KT P6SM OVC040=

USA.gov is the U.S. government's official web portal to all federal, state and local government web resources and services.